Fargo, ND

3:19 AM CDT on July 25, 2017 (GMT -0500)
Hector International

Weather History for KFAR - November, 2014

Change the Weather History Date:

Monday, November 10, 2014

  Actual Average Record
Temperature  
Mean Temperature 22 °F 32 °F  
Max Temperature 24 °F 41 °F 70 °F (1909)
Min Temperature 20 °F 24 °F -4 °F (1979)
Degree Days  
Heating Degree Days 43 33  
Month to date heating degree days 275 301  
Since 1 July heating degree days 974 1177  
Cooling Degree Days 0 0  
Month to date cooling degree days 0 0  
Year to date cooling degree days 544 551  
Moisture  
Dew Point 13 °F    
Average Humidity 67    
Maximum Humidity 74    
Minimum Humidity 59    
Precipitation  
Precipitation T in 0.03 in 1.18 in (1919)
Month to date precipitation 0.46 0.37  
Year to date precipitation 19.70 21.15  
Snow  
Snow T in 0.20 in 12.40 in (1919)
Month to date snowfall 0.3 1.5  
Since 1 July snowfall 0.3 2.2  
Since 1 September snowfall 0.3 2.2  
Snow Depth 0.00 in    
Sea Level Pressure  
Sea Level Pressure 30.03 in    
Wind  
Wind Speed 17 mph (North)    
Max Wind Speed 28 mph    
Max Gust Speed 34 mph    
Visibility 10 miles    
Events      
T = Trace of Precipitation, MM = Missing Value Source: NWS Daily Summary

Daily Weather History Graph

Daily Weather History Graph

Search for Another Location

Airport or City:

Trip Planner

Search our weather history database for the weather conditions in past years. The results will help you decide how hot, cold, wet, or windy it might be!

Date:

Astronomy

Nov. 10, 2014 Rise Set
Actual Time 7:23 AM CST 4:58 PM CST
Civil Twilight 6:50 AM CST 5:31 PM CST
Nautical Twilight 6:13 AM CST 6:07 PM CST
Astronomical Twilight 5:38 AM CST 6:43 PM CST
Moon 8:25 PM CST (11/10) 10:49 AM CST (11/10)
Length of Visible Light 10h 40m
Length of Day
9h 35m
Waning Gibbous, 84% of the Moon is Illuminated
Nov 10
Waning Gibbous
Nov 14
Last Quarter
Nov 22
New
Nov 29
First Quarter
Dec 6
Full

Hourly Weather History & Observations

Time (CST) Temp. Windchill Dew Point Humidity Pressure Visibility Wind Dir Wind Speed Gust Speed Precip Events Conditions
12:53 AM 23.0 °F 15.8 °F 16.0 °F 74% 29.89 in 10.0 mi ENE 5.8 mph - N/A   Overcast
1:53 AM 23.0 °F 15.8 °F 16.0 °F 74% 29.88 in 10.0 mi NE 5.8 mph - N/A   Overcast
2:53 AM 23.0 °F 11.7 °F 15.1 °F 72% 29.87 in 10.0 mi NNE 11.5 mph - N/A   Overcast
3:53 AM 23.0 °F 10.1 °F 15.1 °F 72% 29.86 in 10.0 mi NNE 15.0 mph - N/A   Overcast
4:53 AM 23.0 °F 11.1 °F 15.1 °F 72% 29.86 in 10.0 mi NE 12.7 mph - N/A   Overcast
5:53 AM 23.0 °F 11.1 °F 16.0 °F 74% 29.88 in 10.0 mi NNE 12.7 mph 21.9 mph N/A   Overcast
6:53 AM 23.0 °F 9.6 °F 15.1 °F 72% 29.91 in 10.0 mi NNE 16.1 mph - N/A   Overcast
7:53 AM 23.0 °F 11.1 °F 14.0 °F 68% 29.93 in 10.0 mi NNE 12.7 mph - N/A   Overcast
8:53 AM 23.0 °F 10.6 °F 15.1 °F 72% 29.96 in 10.0 mi NNE 13.8 mph - N/A   Overcast
9:53 AM 23.0 °F 8.0 °F 15.1 °F 72% 29.98 in 10.0 mi North 20.7 mph - N/A   Overcast
10:25 AM 24.1 °F - 14.0 °F 65% 29.94 in 10.0 mi North - - N/A   Overcast
10:53 AM 24.1 °F 9.8 °F 12.9 °F 62% 30.00 in 10.0 mi NNE 19.6 mph 26.5 mph N/A   Overcast
11:53 AM 23.0 °F 6.9 °F 12.0 °F 63% 30.01 in 10.0 mi North 24.2 mph 31.1 mph N/A   Overcast
12:40 PM 23.0 °F 7.2 °F 12.0 °F 63% 29.96 in 10.0 mi North 23.0 mph 31.1 mph N/A   Mostly Cloudy
12:53 PM 23.0 °F 7.6 °F 10.9 °F 60% 30.01 in 10.0 mi North 21.9 mph 33.4 mph N/A   Scattered Clouds
1:07 PM 23.0 °F 8.0 °F 12.0 °F 63% 29.96 in 10.0 mi North 20.7 mph 32.2 mph N/A   Mostly Cloudy
1:18 PM 23.0 °F 6.9 °F 12.0 °F 63% 29.97 in 10.0 mi North 24.2 mph 32.2 mph N/A   Scattered Clouds
1:31 PM 23.0 °F 7.6 °F 12.0 °F 63% 29.98 in 10.0 mi North 21.9 mph 29.9 mph N/A   Mostly Cloudy
1:53 PM 23.0 °F 7.6 °F 12.0 °F 63% 30.04 in 10.0 mi North 21.9 mph 29.9 mph N/A   Mostly Cloudy
2:53 PM 21.9 °F 6.2 °F 10.9 °F 63% 30.04 in 10.0 mi NNE 21.9 mph 29.9 mph N/A   Mostly Cloudy
3:48 PM 21.2 °F 6.4 °F 10.4 °F 63% 30.01 in 10.0 mi North 18.4 mph 29.9 mph N/A   Scattered Clouds
3:53 PM 21.9 °F 5.8 °F 10.9 °F 63% 30.06 in 10.0 mi North 23.0 mph 28.8 mph N/A   Mostly Cloudy
4:08 PM 21.9 °F 6.5 °F 10.9 °F 63% 30.03 in 10.0 mi North 20.7 mph 29.9 mph N/A   Scattered Clouds
4:17 PM 21.9 °F 6.2 °F 10.9 °F 63% 30.04 in 10.0 mi North 21.9 mph 28.8 mph N/A   Mostly Cloudy
4:53 PM 21.0 °F 5.4 °F 10.9 °F 65% 30.13 in 10.0 mi North 20.7 mph - N/A   Mostly Cloudy
5:53 PM 19.9 °F 4.8 °F 10.0 °F 65% 30.17 in 10.0 mi North 18.4 mph - N/A   Mostly Cloudy
6:07 PM 19.9 °F 4.3 °F 10.0 °F 65% 30.13 in 10.0 mi North 19.6 mph - N/A   Partly Cloudy
6:53 PM 19.9 °F 4.3 °F 10.0 °F 65% 30.21 in 10.0 mi NNW 19.6 mph - N/A   Scattered Clouds
7:53 PM 19.9 °F 4.3 °F 12.0 °F 71% 30.22 in 10.0 mi NNW 19.6 mph - N/A   Mostly Cloudy
8:53 PM 19.9 °F 4.8 °F 10.0 °F 65% 30.23 in 10.0 mi NNW 18.4 mph - N/A   Overcast
9:53 PM 19.9 °F 4.3 °F 10.0 °F 65% 30.23 in 10.0 mi NNW 19.6 mph - N/A   Mostly Cloudy
10:53 PM 19.9 °F 5.2 °F 10.9 °F 68% 30.23 in 10.0 mi NNW 17.3 mph - N/A   Overcast
11:53 PM 19.9 °F 4.8 °F 12.9 °F 74% 30.24 in 10.0 mi NNW 18.4 mph - N/A   Overcast